Location: Brno
(49.2000°N, 16.6330°E)
Time: 02:24:29
(UTC+02:00)

Vanguard 3 - Pass Details

Date: 07 August 2021
Orbit: 510 x 3260 km, 33.3° (Epoch: 19 September)

Event Time Altitude Azimuth Distance (km) Brightness Sun altitude
Rises 00:56:35 0° 271° (W) 7,078 12.0 -24.4°
Reaches altitude 10° 01:08:25 10° 241° (WSW) 6,187 11.3 -24.3°
Maximum altitude 01:11:22 11° 232° (SW) 6,101 11.2 -24.3°
Enters shadow 01:13:17 10° 226° (SW) 6,079 11.2 -24.3°
Drops below altitude 10° 01:14:17 10° 223° (SW) 6,078 - -24.3°
Sets 01:25:27 0° 191° (S) 6,572 - -24.1°
